FW2736 Weather Reports


Display with metric or nautical units.
time (UTC)temp
F
wind
direction
speed
MPH
gust
MPH
rain 1hr
in
rain 24hr
in
rain mn
in
humidity
%
barometer
mb
20200401024712 64 203 0.0 0.0 0.00 0.00 0.00 55 1014.2
20200401024214 64 270 2.0 0.0 0.00 0.00 0.00 56 1014.2
20200401023714 65 338 0.0 0.0 0.00 0.00 0.00 55 1014.2
20200401023210 65 203 1.0 0.0 0.00 0.00 0.00 54 1014.2
20200401022715 66 225 0.0 0.0 0.00 0.00 0.00 55 1014.2
20200401022213 66 225 1.0 0.0 0.00 0.00 0.00 55 1014.2
20200401021711 66 225 0.0 0.0 0.00 0.00 0.00 54 1014.2
20200401021211 67 45 3.0 0.0 0.00 0.00 0.00 54 1014.2
20200401020712 67 113 0.0 0.0 0.00 0.00 0.00 53 1014.2
20200401020212 67 293 1.0 0.0 0.00 0.00 0.00 54 1014.2
20200401015714 68 338 3.0 0.0 0.00 0.00 0.00 53 1014.2
20200401015212 68 293 2.0 0.0 0.00 0.00 0.00 52 1014.2
20200401014711 69 0 3.0 0.0 0.00 0.00 0.00 52 1014.2
20200401014214 69 90 4.0 0.0 0.00 0.00 0.00 52 1014.2
20200401013712 70 270 5.0 0.0 0.00 0.00 0.00 51 1014.2
20200401013213 70 68 4.0 0.0 0.00 0.00 0.00 50 1014.2
20200401012713 71 113 2.0 0.0 0.00 0.00 0.00 47 1014.2
20200401012210 71 293 3.0 0.0 0.00 0.00 0.00 46 1014.2
20200401011715 71 90 3.0 0.0 0.00 0.00 0.00 48 1014.2
20200401011214 71 158 3.0 0.0 0.00 0.00 0.00 49 1014.2
20200401010710 71 135 2.0 0.0 0.00 0.00 0.00 49 1014.2
20200401010214 72 45 3.0 0.0 0.00 0.00 0.00 49 1014.2
20200401005713 72 180 3.0 0.0 0.00 0.00 0.00 49 1014.2
20200401005210 72 113 1.0 0.0 0.00 0.00 0.00 50 1014.2
20200401004713 73 315 1.0 0.0 0.00 0.00 0.00 50 1014.2
20200401004211 73 158 3.0 0.0 0.00 0.00 0.00 45 1014.2
20200401003711 74 270 1.0 0.0 0.00 0.00 0.00 42 1014.2
20200401003211 74 180 3.0 0.0 0.00 0.00 0.00 38 1014.6
20200401002711 75 90 1.0 0.0 0.00 0.00 0.00 35 1014.6
20200401002210 75 158 2.0 0.0 0.00 0.00 0.00 37 1014.2
20200401001714 75 135 2.0 0.0 0.00 0.00 0.00 36 1014.6
20200401001214 75 113 2.0 0.0 0.00 0.00 0.00 37 1014.6
20200401000712 75 225 3.0 0.0 0.00 0.00 0.00 37 1014.6
20200401000212 76 180 3.0 0.0 0.00 0.00 0.00 38 1014.6
20200331235712 76 23 1.0 0.0 0.00 0.00 0.00 38 1014.6
20200331235215 77 180 5.0 0.0 0.00 0.00 0.00 36 1014.6
20200331234715 76 135 2.0 0.0 0.00 0.00 0.00 37 1014.9
20200331234212 76 158 4.0 0.0 0.00 0.00 0.00 36 1014.9
20200331233712 76 158 2.0 0.0 0.00 0.00 0.00 36 1014.9
20200331233215 77 180 4.0 0.0 0.00 0.00 0.00 34 1014.9
20200331232713 78 180 3.0 0.0 0.00 0.00 0.00 35 1014.9
20200331232213 78 180 3.0 0.0 0.00 0.00 0.00 33 1015.2
20200331231712 77 113 4.0 0.0 0.00 0.00 0.00 31 1015.2
20200331231215 78 158 3.0 0.0 0.00 0.00 0.00 31 1015.2
20200331230712 78 113 3.0 0.0 0.00 0.00 0.00 30 1015.2
20200331230213 78 90 2.0 0.0 0.00 0.00 0.00 30 1015.2
20200331225710 78 158 3.0 0.0 0.00 0.00 0.00 31 1015.2
20200331225213 78 180 4.0 0.0 0.00 0.00 0.00 31 1015.2
20200331224711 79 113 3.0 0.0 0.00 0.00 0.00 30 1015.2
20200331224216 78 135 4.0 0.0 0.00 0.00 0.00 31 1015.2
20200331223711 79 203 2.0 0.0 0.00 0.00 0.00 33 1015.2
20200331223215 79 203 4.0 0.0 0.00 0.00 0.00 33 1015.2
20200331222713 80 158 3.0 0.0 0.00 0.00 0.00 33 1015.2
20200331222213 80 90 2.0 0.0 0.00 0.00 0.00 34 1015.6
20200331221714 80 113 2.0 0.0 0.00 0.00 0.00 37 1015.6
20200331221212 81 113 1.0 0.0 0.00 0.00 0.00 38 1015.6
20200331220716 80 90 2.0 0.0 0.00 0.00 0.00 39 1015.6
20200331220220 79 113 1.0 0.0 0.00 0.00 0.00 39 1015.6
20200331215715 79 203 1.0 0.0 0.00 0.00 0.00 40 1015.6
20200331215214 81 270 3.0 0.0 0.00 0.00 0.00 39 1015.9
20200331214711 81 203 0.0 0.0 0.00 0.00 0.00 40 1015.9
20200331214215 80 113 2.0 0.0 0.00 0.00 0.00 41 1015.9
20200331213712 79 158 1.0 0.0 0.00 0.00 0.00 43 1015.9
20200331213215 80 113 0.0 0.0 0.00 0.00 0.00 41 1015.9
20200331212715 79 203 1.0 0.0 0.00 0.00 0.00 45 1015.9
20200331212214 78 293 1.0 0.0 0.00 0.00 0.00 46 1016.3
20200331211709 77 270 2.0 0.0 0.00 0.00 0.00 48 1016.3
20200331211212 79 225 0.0 0.0 0.00 0.00 0.00 46 1016.3
20200331210713 77 248 0.0 0.0 0.00 0.00 0.00 48 1016.3
20200331210217 77 248 1.0 0.0 0.00 0.00 0.00 49 1016.6
20200331205717 76 270 2.0 0.0 0.00 0.00 0.00 51 1016.6
20200331205214 75 203 0.0 0.0 0.00 0.00 0.00 54 1016.6
20200331204713 75 293 2.0 0.0 0.00 0.00 0.00 52 1016.6
20200331204212 76 225 1.0 0.0 0.00 0.00 0.00 52 1016.6
20200331203714 75 248 0.0 0.0 0.00 0.00 0.00 54 1016.9
20200331203211 75 338 2.0 0.0 0.00 0.00 0.00 52 1016.9
20200331202711 76 135 2.0 0.0 0.00 0.00 0.00 52 1016.9
20200331202213 77 113 0.0 0.0 0.00 0.00 0.00 49 1016.9
20200331201712 77 180 1.0 0.0 0.00 0.00 0.00 52 1016.9
20200331201212 76 180 0.0 0.0 0.00 0.00 0.00 55 1017.3
20200331200712 75 158 1.0 0.0 0.00 0.00 0.00 53 1017.3
20200331200219 73 135 0.0 0.0 0.00 0.00 0.00 57 1017.3
20200331195714 73 248 0.0 0.0 0.00 0.00 0.00 57 1017.3
20200331195212 73 135 1.0 0.0 0.00 0.00 0.00 55 1017.3
20200331194713 73 180 1.0 0.0 0.00 0.00 0.00 56 1017.6
20200331194213 71 90 0.0 0.0 0.00 0.00 0.00 58 1017.6
20200331193713 72 68 0.0 0.0 0.00 0.00 0.00 55 1017.6
20200331193214 70 293 1.0 0.0 0.00 0.00 0.00 58 1017.6
20200331192713 71 248 0.0 0.0 0.00 0.00 0.00 57 1017.9
20200331192211 73 180 0.0 0.0 0.00 0.00 0.00 56 1017.9
20200331191714 72 135 2.0 0.0 0.00 0.00 0.00 57 1017.9
20200331191217 71 203 2.0 0.0 0.00 0.00 0.00 56 1017.9
20200331190714 72 135 2.0 0.0 0.00 0.00 0.00 56 1018.3
20200331190216 70 180 2.0 0.0 0.00 0.00 0.00 57 1018.3
20200331185719 70 135 0.0 0.0 0.00 0.00 0.00 59 1018.3
20200331185211 71 113 1.0 0.0 0.00 0.00 0.00 57 1018.3
20200331184712 69 113 0.0 0.0 0.00 0.00 0.00 57 1018.3
20200331184211 70 158 0.0 0.0 0.00 0.00 0.00 59 1018.6
20200331183715 68 113 0.0 0.0 0.00 0.00 0.00 61 1018.6
20200331183210 67 45 0.0 0.0 0.00 0.00 0.00 64 1018.6
20200331182713 67 113 0.0 0.0 0.00 0.00 0.00 63 1018.6
20200331182212 67 0 2.0 0.0 0.00 0.00 0.00 64 1019.0
20200331181721 66 113 0.0 0.0 0.00 0.00 0.00 64 1019.0
20200331181211 66 158 0.0 0.0 0.00 0.00 0.00 66 1019.0
20200331180711 65 315 0.0 0.0 0.00 0.00 0.00 67 1019.0
20200331180216 66 248 0.0 0.0 0.00 0.00 0.00 65 1019.3
20200331175712 65 113 1.0 0.0 0.00 0.00 0.00 66 1019.0
20200331175216 64 135 1.0 0.0 0.00 0.00 0.00 69 1019.0
20200331174711 64 158 1.0 0.0 0.00 0.00 0.00 69 1019.0
20200331174212 65 45 1.0 0.0 0.00 0.00 0.00 68 1019.0
20200331173714 64 180 3.0 0.0 0.00 0.00 0.00 70 1019.0
20200331173216 63 113 2.0 0.0 0.00 0.00 0.00 71 1019.3
20200331172711 62 113 0.0 0.0 0.00 0.00 0.00 70 1019.3
20200331172213 63 90 0.0 0.0 0.00 0.00 0.00 71 1019.3
20200331171715 62 180 3.0 0.0 0.00 0.00 0.00 72 1019.3
20200331171215 63 90 0.0 0.0 0.00 0.00 0.00 74 1019.3
20200331170713 63 113 0.0 0.0 0.00 0.00 0.00 74 1019.3
20200331170210 62 248 0.0 0.0 0.00 0.00 0.00 75 1019.6
20200331165715 60 338 0.0 0.0 0.00 0.00 0.00 77 1019.6
20200331165211 60 203 0.0 0.0 0.00 0.00 0.00 78 1019.6
20200331164713 60 225 0.0 0.0 0.00 0.00 0.00 79 1020.0
20200331164213 60 158 1.0 0.0 0.00 0.00 0.00 79 1020.0
20200331163714 59 315 0.0 0.0 0.00 0.00 0.00 82 1020.0
20200331163213 58 45 1.0 0.0 0.00 0.00 0.00 83 1020.0
20200331162712 58 270 0.0 0.0 0.00 0.00 0.00 85 1020.0
20200331162212 57 270 0.0 0.0 0.00 0.00 0.00 84 1020.0
20200331161710 57 45 0.0 0.0 0.00 0.00 0.00 83 1020.0
20200331161211 56 338 2.0 0.0 0.00 0.00 0.00 82 1020.0
20200331160714 55 293 2.0 0.0 0.00 0.00 0.00 82 1020.0
20200331160212 55 293 2.0 0.0 0.00 0.00 0.00 88 1020.0
20200331155712 55 293 0.0 0.0 0.00 0.00 0.00 86 1020.0
20200331155213 55 293 0.0 0.0 0.00 0.00 0.00 84 1020.0
20200331154710 54 270 0.0 0.0 0.00 0.00 0.00 84 1020.0
20200331154212 54 180 0.0 0.0 0.00 0.00 0.00 85 1020.0
20200331153710 52 293 0.0 0.0 0.00 0.00 0.00 86 1020.3
20200331153211 52 338 0.0 0.0 0.00 0.00 0.00 92 1020.3
20200331152714 52 248 1.0 0.0 0.00 0.00 0.00 91 1020.3
20200331152211 53 225 0.0 0.0 0.00 0.00 0.00 86 1020.3
20200331151710 53 225 0.0 0.0 0.00 0.00 0.00 84 1020.3
20200331151213 52 158 2.0 0.0 0.00 0.00 0.00 86 1020.3
20200331150711 51 135 0.0 0.0 0.00 0.00 0.00 88 1020.3
20200331150213 50 135 0.0 0.0 0.00 0.00 0.00 90 1020.3
20200331145710 49 338 0.0 0.0 0.00 0.00 0.00 93 1020.3
20200331145209 50 315 0.0 0.0 0.00 0.00 0.00 90 1020.7
20200331144709 49 293 0.0 0.0 0.00 0.00 0.00 91 1020.3
20200331144212 48 248 0.0 0.0 0.00 0.00 0.00 94 1020.3
20200331143713 47 338 1.0 0.0 0.00 0.00 0.00 96 1020.3
20200331143213 46 315 2.0 0.0 0.00 0.00 0.00 97 1020.3
20200331142713 45 248 0.0 0.0 0.00 0.00 0.00 97 1020.3
20200331142210 44 203 0.0 0.0 0.00 0.00 0.00 97 1020.3
20200331141715 44 180 0.0 0.0 0.00 0.00 0.00 97 1020.3
20200331141210 44 293 0.0 0.0 0.00 0.00 0.00 97 1020.3
20200331140714 44 270 0.0 0.0 0.00 0.00 0.00 97 1020.3
20200331140214 44 135 0.0 0.0 0.00 0.00 0.00 97 1020.3
20200331135711 44 315 0.0 0.0 0.00 0.00 0.00 97 1020.0
20200331135210 44 315 0.0 0.0 0.00 0.00 0.00 97 1020.0
20200331134711 44 270 0.0 0.0 0.00 0.00 0.00 97 1020.0
20200331134211 44 293 0.0 0.0 0.00 0.00 0.00 97 1020.0
20200331133713 44 0 0.0 0.0 0.00 0.00 0.00 97 1020.0
20200331133214 44 315 0.0 0.0 0.00 0.00 0.00 97 1019.6
20200331132712 44 293 0.0 0.0 0.00 0.00 0.00 97 1019.6
20200331132210 44 203 0.0 0.0 0.00 0.00 0.00 97 1019.6
20200331131710 44 203 0.0 0.0 0.00 0.00 0.00 97 1019.6
20200331131210 44 225 0.0 0.0 0.00 0.00 0.00 97 1019.6
20200331130709 44 23 0.0 0.0 0.00 0.00 0.00 97 1019.6
20200331130212 44 270 0.0 0.0 0.00 0.00 0.00 97 1019.6
20200331125712 44 270 0.0 0.0 0.00 0.00 0.00 97 1019.6
20200331125212 44 315 0.0 0.0 0.00 0.00 0.00 97 1019.3
20200331124708 44 315 0.0 0.0 0.00 0.00 0.00 97 1019.6
20200331124210 44 225 0.0 0.0 0.00 0.00 0.00 97 1019.6
20200331123710 43 248 0.0 0.0 0.00 0.00 0.00 97 1019.6
20200331123210 43 248 0.0 0.0 0.00 0.00 0.00 97 1019.6
20200331122712 43 248 0.0 0.0 0.00 0.00 0.00 97 1019.6
20200331122210 44 248 0.0 0.0 0.00 0.00 0.00 97 1019.6
20200331121720 44 248 0.0 0.0 0.00 0.00 0.00 97 1019.6
20200331121214 44 248 0.0 0.0 0.00 0.00 0.00 97 1019.6
20200331120709 44 248 0.0 0.0 0.00 0.00 0.00 97 1019.6
20200331120211 44 248 0.0 0.0 0.00 0.00 0.00 97 1019.6
20200331115709 44 248 0.0 0.0 0.00 0.00 0.00 97 1019.6
20200331115210 44 248 0.0 0.0 0.00 0.00 0.00 97 1020.0
20200331114712 44 270 0.0 0.0 0.00 0.00 0.00 97 1020.0
20200331114209 44 293 0.0 0.0 0.00 0.00 0.00 97 1020.0
20200331113713 44 315 0.0 0.0 0.00 0.00 0.00 96 1020.3
20200331113211 43 293 0.0 0.0 0.00 0.00 0.00 96 1020.3
20200331112714 43 338 0.0 0.0 0.00 0.00 0.00 96 1020.3
20200331112210 43 293 0.0 0.0 0.00 0.00 0.00 96 1020.3
20200331111710 43 293 0.0 0.0 0.00 0.00 0.00 95 1020.7
20200331111209 43 293 0.0 0.0 0.00 0.00 0.00 95 1020.7
20200331110710 43 293 0.0 0.0 0.00 0.00 0.00 95 1020.7
20200331110209 43 315 0.0 0.0 0.00 0.00 0.00 95 1020.7
20200331105708 43 315 0.0 0.0 0.00 0.00 0.00 95 1020.7
20200331105210 43 293 0.0 0.0 0.00 0.00 0.00 95 1020.7
20200331104711 44 225 0.0 0.0 0.00 0.00 0.00 95 1020.7
20200331104210 44 225 0.0 0.0 0.00 0.00 0.00 95 1020.7
20200331103709 44 293 0.0 0.0 0.00 0.00 0.00 95 1021.0
20200331103209 44 315 0.0 0.0 0.00 0.00 0.00 95 1021.0
20200331102710 45 203 0.0 0.0 0.00 0.00 0.00 95 1021.0
20200331102209 45 315 0.0 0.0 0.00 0.00 0.00 95 1021.0
20200331101710 45 293 0.0 0.0 0.00 0.00 0.00 95 1021.0
20200331101211 45 293 0.0 0.0 0.00 0.00 0.00 95 1021.0
20200331100710 46 180 0.0 0.0 0.00 0.00 0.00 95 1021.0
20200331100211 46 315 0.0 0.0 0.00 0.00 0.00 95 1021.3
20200331095709 46 225 0.0 0.0 0.00 0.00 0.00 95 1021.3
20200331095210 46 315 0.0 0.0 0.00 0.00 0.00 95 1021.3
20200331094710 46 203 0.0 0.0 0.00 0.00 0.00 95 1021.3
20200331094212 46 270 0.0 0.0 0.00 0.00 0.00 95 1021.3
20200331093711 46 293 0.0 0.0 0.00 0.00 0.00 95 1021.3
20200331093211 47 315 0.0 0.0 0.00 0.00 0.00 95 1021.7
20200331092712 47 225 0.0 0.0 0.00 0.00 0.00 95 1021.7
20200331092208 46 113 0.0 0.0 0.00 0.00 0.00 93 1021.7
20200331091708 46 158 0.0 0.0 0.00 0.00 0.00 93 1021.7
20200331091210 46 315 0.0 0.0 0.00 0.00 0.00 93 1021.7
20200331090709 46 293 0.0 0.0 0.00 0.00 0.00 93 1022.0
20200331090211 46 248 0.0 0.0 0.00 0.00 0.00 93 1021.7
20200331085710 46 338 0.0 0.0 0.00 0.00 0.00 93 1022.0
20200331085209 46 203 0.0 0.0 0.00 0.00 0.00 93 1022.4
20200331084708 47 270 0.0 0.0 0.00 0.00 0.00 93 1022.0
20200331084209 47 293 0.0 0.0 0.00 0.00 0.00 93 1022.4
20200331083711 47 270 0.0 0.0 0.00 0.00 0.00 93 1022.4
20200331083210 47 180 0.0 0.0 0.00 0.00 0.00 93 1022.4
20200331082711 48 225 0.0 0.0 0.00 0.00 0.00 93 1022.4
20200331082212 48 203 0.0 0.0 0.00 0.00 0.00 93 1022.7
20200331081708 48 248 0.0 0.0 0.00 0.00 0.00 93 1022.4
20200331081211 48 315 0.0 0.0 0.00 0.00 0.00 92 1022.4
20200331080712 48 293 0.0 0.0 0.00 0.00 0.00 92 1022.4
20200331080210 48 270 0.0 0.0 0.00 0.00 0.00 92 1022.4
20200331075708 48 338 0.0 0.0 0.00 0.00 0.00 91 1022.7
20200331075210 49 293 0.0 0.0 0.00 0.00 0.00 91 1022.7
20200331074711 50 315 0.0 0.0 0.00 0.00 0.00 91 1022.7
20200331074208 50 90 0.0 0.0 0.00 0.00 0.00 91 1022.7
20200331073709 50 225 0.0 0.0 0.00 0.00 0.00 91 1022.7
20200331073210 51 225 0.0 0.0 0.00 0.00 0.00 91 1022.7
20200331072711 51 270 1.0 0.0 0.00 0.00 0.00 92 1023.0
20200331072211 51 293 4.0 0.0 0.00 0.00 0.00 92 1023.0
20200331071709 50 293 0.0 0.0 0.00 0.00 0.00 91 1023.0
20200331071210 50 45 1.0 0.0 0.00 0.00 0.00 91 1023.0
20200331070710 50 270 0.0 0.0 0.00 0.00 0.00 91 1023.0
20200331070209 50 315 0.0 0.0 0.00 0.00 0.00 91 1023.0
20200331065711 50 293 0.0 0.0 0.00 0.00 0.00 91 1023.0
20200331065209 50 315 0.0 0.0 0.00 0.00 0.00 91 1023.0
20200331064708 51 248 2.0 0.0 0.00 0.00 0.00 91 1023.0
20200331064211 51 338 2.0 0.0 0.00 0.00 0.00 91 1023.0
20200331063708 51 315 3.0 0.0 0.00 0.00 0.00 91 1023.4
20200331063208 51 270 3.0 0.0 0.00 0.00 0.00 92 1023.4
20200331062711 50 293 2.0 0.0 0.00 0.00 0.00 91 1023.4
20200331062209 49 315 0.0 0.0 0.00 0.00 0.00 90 1023.4
20200331061711 49 293 0.0 0.0 0.00 0.00 0.00 89 1023.4
20200331061210 49 248 0.0 0.0 0.00 0.00 0.00 89 1023.4
20200331060711 49 293 0.0 0.0 0.00 0.00 0.00 89 1023.4
20200331060208 50 293 0.0 0.0 0.00 0.00 0.00 89 1023.4
20200331055709 50 270 0.0 0.0 0.00 0.00 0.00 88 1023.7
20200331055209 50 315 0.0 0.0 0.00 0.00 0.00 87 1023.7
20200331054712 50 270 0.0 0.0 0.00 0.00 0.00 87 1023.7
20200331054210 50 315 0.0 0.0 0.00 0.00 0.00 87 1023.7
20200331053711 51 293 0.0 0.0 0.00 0.00 0.00 87 1023.7
20200331053210 51 293 0.0 0.0 0.00 0.00 0.00 85 1023.7
20200331052711 51 270 0.0 0.0 0.00 0.00 0.00 85 1023.7
20200331052211 51 293 0.0 0.0 0.00 0.00 0.00 85 1023.7
20200331051711 52 338 0.0 0.0 0.00 0.00 0.00 84 1023.7
20200331051212 52 315 0.0 0.0 0.00 0.00 0.00 84 1023.7
20200331050710 53 315 0.0 0.0 0.00 0.00 0.00 84 1023.4
20200331050213 53 248 0.0 0.0 0.00 0.00 0.00 84 1023.4
20200331045708 52 315 1.0 0.0 0.00 0.00 0.00 83 1023.4
20200331045211 53 270 0.0 0.0 0.00 0.00 0.00 81 1023.4
20200331044712 53 338 0.0 0.0 0.00 0.00 0.00 81 1023.4
20200331044211 53 293 0.0 0.0 0.00 0.00 0.00 81 1023.4
20200331043709 53 0 1.0 0.0 0.00 0.00 0.00 81 1023.4
20200331043210 54 315 0.0 0.0 0.00 0.00 0.00 80 1023.4
20200331042710 54 315 0.0 0.0 0.00 0.00 0.00 80 1023.4
20200331042212 54 113 0.0 0.0 0.00 0.00 0.00 80 1023.0
20200331041710 55 315 2.0 0.0 0.00 0.00 0.00 82 1023.0
20200331041212 55 293 1.0 0.0 0.00 0.00 0.00 82 1023.0
20200331040712 54 315 2.0 0.0 0.00 0.00 0.00 81 1023.0
20200331040210 54 0 0.0 0.0 0.00 0.00 0.00 79 1023.0
20200331035712 54 338 0.0 0.0 0.00 0.00 0.00 75 1023.0
20200331035212 55 45 0.0 0.0 0.00 0.00 0.00 72 1023.0
20200331034710 55 293 0.0 0.0 0.00 0.00 0.00 72 1023.0
20200331034210 56 315 0.0 0.0 0.00 0.00 0.00 70 1023.0
20200331033710 57 45 0.0 0.0 0.00 0.00 0.00 66 1022.7
20200331033211 58 270 0.0 0.0 0.00 0.00 0.00 64 1023.0
20200331032710 58 270 0.0 0.0 0.00 0.00 0.00 64 1022.7
20200331032211 59 203 2.0 0.0 0.00 0.00 0.00 62 1022.7
20200331031714 59 225 0.0 0.0 0.00 0.00 0.00 60 1022.7
20200331031213 60 270 1.0 0.0 0.00 0.00 0.00 59 1022.7
20200331030715 60 45 3.0 0.0 0.00 0.00 0.00 56 1022.4
20200331030215 59 203 1.0 0.0 0.00 0.00 0.00 56 1022.4
20200331025712 59 270 1.0 0.0 0.00 0.00 0.00 54 1022.0
20200331025218 60 23 3.0 0.0 0.00 0.00 0.00 54 1022.0